THOR BURNER 2 R/B, 2741

Orbit data source: Space-Track

THOR BURNER 2 R/B, 2741 is space debris in SSO originally from a launch on Wed, 08 Feb 1967 UTC launched from the Air Force Western Test Range (AFWTR). Debris objects in space refer to the collection of defunct objects orbiting the Earth. Examples of debris include non-operational satellites, rocket bodies, and fragments generated from explosions, collisions, or faulty payload assembly.

Loading next visibility...
Identifier
2741, 1967-010B
Orbit
SSO
Country
Flag of USUS
Related business
Manufacturer
Thiokol/TE
Mission
Spacecraft
Bus & Motor
STAR 37, Unknown motor
Mass
136 kg wet, 136 kg dry
Launch date (UTC)
1967-02-08 (59 years ago)
Launch vehicle
Unknown
Launch site
Air Force Western Test Range (AFWTR)
Object type
Payload
Rocket body
Debris
Shape & HBR
Sphere + Cone + 1 Truss, 0.8 m
Radar Cross Section
2.270 m², Large (>1 m²)

Expand to show TLE details & history
Last TLE update: 1 day ago

TLE from 1 day ago
0 THOR BURNER 2 R/B
1 02741U 67010B   25257.29524846  .00000183  00000-0  89435-4 0  9994
2 02741  98.9355 198.5825 0052895   7.3487 352.8457 14.29071874 45861
Epoch: 2025-09-14T07:05Z
TLE epoch observation values (Epoch: 2025-09-14T07:05:09.466Z)
Latitude
-0.00009°
Longitude
98.77677°
Altitude
760.104 km
Speed
7.494 km/s
True Right ascension
13h 14m 19s
True Declination
0° 00' 00"
Sunlit
Object was in daylight at epoch
Visualization orbit readout
Latitude
Unknown
Longitude
Unknown
Altitude
Unknown
Speed
Unknown
Apparent Right ascension
Unknown
Apparent Declination
Unknown
Sunlit
N/A
Visualization observer readout
Local Sidereal Time
01:42:10
Azimuth
Unknown
Elevation
Unknown
Doppler factor
Unknown
Orbital elements
Apogee altitude
829.919 km
Perigee altitude
754.066 km
Semi-major axis
7,170.129 km
Eccentricity
0.00529
Inclination
98.9355°
RAAN
198.5825°
Arg. of periapsis
7.3487°
True anomaly
352.76971°
Mean anomaly
352.8457°
Eccentric anomaly
352.80776°
Mean motion
3.57481 °/min
Orbital period
100.7 mins
BSTAR
0.000089435
Loading maneuver chart data...
Computing Atmospheric mass density...
Loading historical data...
Loading historical data...
Loading historical data...
Loading historical data...
Loading historical data...
Loading historical data...
Loading historical data...
Other satellites on launch #10 in the year 1967 (1967-02-08 UTC)

Documentation

Showing up to 5 results
|